Location: Unspecified
(35.6961°N, 0.0000°E)
Time: 14:42:26
(UTC+00:00)

Altair - Pass Details

Date: 23 May 2019
Orbit: 1501 x 1683 km, 47.2° (Epoch: 18 June)

Event Time Altitude Azimuth Distance (km) Brightness Sun altitude
Rises 11:36:45 0° 300° (WNW) 4,894 10.0 74.3°
Reaches altitude 10° 11:40:13 10° 293° (WNW) 3,883 9.7 74.5°
Maximum altitude 11:49:00 38° 230° (SW) 2,273 9.2 74.8°
Drops below altitude 10° 11:57:30 10° 166° (SSE) 3,741 9.9 74.9°
Sets 12:00:48 0° 158° (SSE) 4,697 10.2 74.9°
